Weather History for Rickenbacker, OH

Change the Weather History Date:

Tuesday, January 1, 2013

  Actual Average Record
Temperature  
Mean Temperature 28 °F -  
Max Temperature 33 °F 38 °F 59 °F (2011)
Min Temperature 23 °F 25 °F 6 °F (1999)
Degree Days  
Heating Degree Days 37    
Moisture  
Dew Point 22 °F    
Average Humidity 75    
Maximum Humidity 90    
Minimum Humidity 60    
Precipitation  
Precipitation 0.00 in - - ()
Sea Level Pressure  
Sea Level Pressure 30.07 in    
Wind  
Wind Speed 6 mph (NW)    
Max Wind Speed 14 mph    
Max Gust Speed 16 mph    
Visibility 7 miles    
Events Snow    
Averages and records for this station are not official NWS values.
T = Trace of Precipitation, MM = Missing Value Source: NWS Daily Summary

Daily Weather History Graph

Daily Weather History Graph

Search for Another Location

Airport:

Trip Planner

Search our weather history database for the weather conditions in past years. The results will help you decide how hot, cold, wet, or windy it might be!

Date:

Astronomy

Jan. 01, 2013 Rise Set
Actual Time 7:53 AM EST 5:18 PM EST
Civil Twilight 7:22 AM EST 5:48 PM EST
Nautical Twilight 6:48 AM EST 6:22 PM EST
Astronomical Twilight 6:16 AM EST 6:54 PM EST
Moon 9:47 PM EST (1/1) 10:05 AM EST (1/1)
Length of Visible Light 10h 25m
Length of Day
9h 24m
Waning Gibbous, 83% of the Moon is Illuminated
Jan 1
Waning Gibbous
Jan 4
Last Quarter
Jan 11
New
Jan 18
First Quarter
Jan 26
Full

Hourly Weather History & Observations

Time (EST) Temp. Windchill Dew Point Humidity Pressure Visibility Wind Dir Wind Speed Gust Speed Precip Events Conditions
12:15 AM 33.8 °F 27.7 °F 30.0 °F 86% 30.05 in 5.0 mi WSW 6.9 mph - N/A Snow Light Snow
12:35 AM 33.6 °F 28.4 °F 30.0 °F 87% 30.05 in 4.0 mi SW 5.8 mph - N/A Snow Light Snow
12:55 AM 33.1 °F 26.9 °F 29.7 °F 87% 30.05 in 1.5 mi SW 6.9 mph - N/A Snow Light Snow
1:15 AM 32.9 °F 27.5 °F 29.5 °F 87% 30.03 in 1.5 mi SW 5.8 mph - N/A Snow Light Snow
1:35 AM 32.2 °F 26.7 °F 29.1 °F 88% 30.03 in 4.0 mi SW 5.8 mph - N/A Snow Light Snow
1:55 AM 32.0 °F 25.6 °F 28.8 °F 88% 30.03 in 4.0 mi SW 6.9 mph - N/A Snow Light Snow
2:15 AM 31.6 °F 26.0 °F 28.4 °F 88% 30.03 in 5.0 mi SW 5.8 mph - N/A Snow Light Snow
2:35 AM 31.5 °F 24.2 °F 28.4 °F 88% 30.04 in 5.0 mi SSW 8.1 mph - N/A Snow Light Snow
2:55 AM 31.5 °F 25.8 °F 28.4 °F 88% 30.03 in 5.0 mi SW 5.8 mph - N/A   Overcast
3:15 AM 31.1 °F 24.5 °F 28.0 °F 88% 30.04 in 5.0 mi SW 6.9 mph - N/A Snow Light Snow
3:35 AM 31.1 °F - 28.0 °F 88% 30.03 in 5.0 mi Calm Calm - N/A   Overcast
3:55 AM 30.9 °F 26.2 °F 27.9 °F 88% 30.03 in 5.0 mi SSW 4.6 mph - N/A   Overcast
4:15 AM 30.9 °F 26.2 °F 27.9 °F 88% 30.02 in 7.0 mi SSW 4.6 mph - N/A   Overcast
4:35 AM 30.9 °F 27.5 °F 27.9 °F 88% 30.01 in 4.0 mi SSW 3.5 mph - N/A Snow Light Snow
4:55 AM 30.7 °F 27.3 °F 27.9 °F 89% 30.01 in 2.0 mi SSW 3.5 mph - N/A Snow Light Snow
5:15 AM 30.6 °F 27.1 °F 27.7 °F 89% 30.02 in 3.0 mi SW 3.5 mph - N/A   Overcast
5:35 AM 30.6 °F 27.1 °F 27.7 °F 89% 30.03 in 1.5 mi SW 3.5 mph - N/A Snow Light Snow
6:15 AM 30.2 °F 25.4 °F 27.5 °F 90% 30.03 in 2.0 mi WSW 4.6 mph - N/A Snow Light Snow
6:35 AM 30.2 °F 24.3 °F 27.5 °F 90% 30.04 in 1.8 mi WSW 5.8 mph - N/A Snow Light Snow
7:15 AM 30.2 °F 26.7 °F 27.5 °F 90% 30.03 in 2.5 mi West 3.5 mph - N/A Snow Light Snow
7:35 AM 30.2 °F 26.7 °F 27.5 °F 90% 30.04 in 2.0 mi WSW 3.5 mph - N/A   Overcast
7:55 AM 30.0 °F 26.5 °F 27.3 °F 90% 30.04 in 2.5 mi SW 3.5 mph - N/A   Overcast
8:15 AM 29.8 °F 24.9 °F 27.3 °F 90% 30.05 in 2.0 mi WSW 4.6 mph - N/A   Overcast
8:35 AM 29.5 °F 24.5 °F 26.8 °F 90% 30.05 in 1.8 mi West 4.6 mph - N/A   Overcast
8:55 AM 29.7 °F 24.7 °F 27.0 °F 90% 30.06 in 2.5 mi West 4.6 mph - N/A   Overcast
9:15 AM 30.4 °F 24.5 °F 27.3 °F 88% 30.06 in 4.0 mi WNW 5.8 mph - N/A   Overcast
9:35 AM 30.2 °F 23.4 °F 27.0 °F 88% 30.07 in 5.0 mi WNW 6.9 mph - N/A   Overcast
9:55 AM 30.4 °F 24.5 °F 26.4 °F 85% 30.06 in 5.0 mi NNW 5.8 mph - N/A   Haze
10:15 AM 32.0 °F 25.6 °F 27.7 °F 84% 30.06 in 5.0 mi North 6.9 mph - N/A   Haze
10:35 AM 32.5 °F 26.2 °F 28.2 °F 84% 30.07 in 5.0 mi North 6.9 mph - N/A   Haze
10:55 AM 32.9 °F 23.2 °F 28.0 °F 82% 30.08 in 5.0 mi NNW 13.8 mph - N/A   Haze
11:15 AM 32.0 °F 22.5 °F 25.9 °F 78% 30.07 in 5.0 mi North 12.7 mph 16.1 mph N/A   Haze
11:35 AM 31.8 °F 23.3 °F 23.9 °F 73% 30.06 in 5.0 mi North 10.4 mph - N/A   Haze
11:55 AM 31.8 °F 23.9 °F 23.5 °F 71% 30.07 in 7.0 mi North 9.2 mph - N/A   Overcast
12:15 PM 32.2 °F 24.4 °F 23.2 °F 69% 30.07 in 7.0 mi NNW 9.2 mph - N/A   Overcast
12:35 PM 32.4 °F 24.0 °F 22.5 °F 67% 30.07 in 10.0 mi North 10.4 mph - N/A   Overcast
12:55 PM 32.5 °F 25.5 °F 22.5 °F 66% 30.05 in 10.0 mi North 8.1 mph - N/A   Overcast
1:15 PM 32.7 °F 25.7 °F 22.3 °F 65% 30.04 in 10.0 mi NNW 8.1 mph - N/A   Overcast
1:35 PM 32.2 °F 24.4 °F 21.9 °F 66% 30.04 in 10.0 mi NNW 9.2 mph - N/A   Overcast
1:55 PM 32.0 °F 24.2 °F 21.4 °F 65% 30.06 in 10.0 mi NW 9.2 mph - N/A   Overcast
2:15 PM 32.0 °F 23.6 °F 20.8 °F 63% 30.04 in 10.0 mi NNW 10.4 mph - N/A   Scattered Clouds
2:35 PM 32.0 °F 24.2 °F 19.4 °F 60% 30.04 in 10.0 mi NNW 9.2 mph - N/A   Clear
2:55 PM 31.6 °F 23.7 °F 19.8 °F 62% 30.05 in 10.0 mi NNW 9.2 mph - N/A   Clear
3:15 PM 31.5 °F 24.9 °F 19.2 °F 61% 30.05 in 10.0 mi NNW 6.9 mph - N/A   Clear
3:35 PM 31.1 °F 24.5 °F 19.2 °F 61% 30.06 in 10.0 mi NNW 6.9 mph - N/A   Clear
3:55 PM 30.7 °F 23.3 °F 19.0 °F 62% 30.07 in 10.0 mi NNW 8.1 mph - N/A   Clear
4:15 PM 30.2 °F 21.9 °F 18.9 °F 63% 30.08 in 10.0 mi NNW 9.2 mph - N/A   Clear
4:35 PM 29.5 °F 22.5 °F 18.1 °F 63% 30.08 in 10.0 mi NNW 6.9 mph - N/A   Clear
5:15 PM 28.4 °F 22.2 °F 16.2 °F 60% 30.06 in 10.0 mi North 5.8 mph - N/A   Clear
5:35 PM 27.9 °F 20.6 °F 15.8 °F 61% 30.07 in 10.0 mi North 6.9 mph - N/A   Clear
5:55 PM 27.3 °F 23.4 °F 16.2 °F 63% 30.09 in 10.0 mi North 3.5 mph - N/A   Clear
6:15 PM 27.0 °F - 16.0 °F 63% 30.10 in 10.0 mi Calm Calm - N/A   Clear
6:35 PM 26.1 °F 21.9 °F 15.8 °F 65% 30.09 in 10.0 mi North 3.5 mph - N/A   Clear
6:55 PM 25.7 °F 21.5 °F 15.1 °F 64% 30.10 in 10.0 mi North 3.5 mph - N/A   Clear
7:15 PM 25.5 °F 19.9 °F 14.7 °F 64% 30.09 in 10.0 mi North 4.6 mph - N/A   Clear
7:35 PM 25.0 °F 19.3 °F 14.4 °F 64% 30.10 in 10.0 mi North 4.6 mph - N/A   Clear
7:55 PM 24.8 °F 19.1 °F 13.8 °F 63% 30.09 in 10.0 mi North 4.6 mph - N/A   Clear
8:15 PM 24.1 °F 18.2 °F 13.8 °F 65% 30.10 in 10.0 mi North 4.6 mph - N/A   Clear
8:35 PM 23.9 °F 18.0 °F 14.0 °F 66% 30.10 in 10.0 mi North 4.6 mph - N/A   Clear
8:55 PM 23.9 °F 19.5 °F 14.2 °F 66% 30.10 in 10.0 mi North 3.5 mph - N/A   Clear
9:15 PM 23.7 °F 16.6 °F 14.0 °F 66% 30.11 in 10.0 mi North 5.8 mph - N/A   Clear
9:35 PM 23.7 °F 17.8 °F 14.0 °F 66% 30.12 in 10.0 mi North 4.6 mph - N/A   Scattered Clouds
9:55 PM 23.9 °F - 13.8 °F 65% 30.13 in 10.0 mi Calm Calm - N/A   Scattered Clouds
10:15 PM 23.5 °F 19.1 °F 13.8 °F 66% 30.14 in 10.0 mi NNW 3.5 mph - N/A   Overcast
10:35 PM 23.7 °F 19.3 °F 14.0 °F 66% 30.14 in 10.0 mi NNW 3.5 mph - N/A   Overcast
10:55 PM 23.7 °F 19.3 °F 14.4 °F 67% 30.13 in 10.0 mi NW 3.5 mph - N/A   Overcast
11:15 PM 23.4 °F 18.9 °F 14.7 °F 70% 30.13 in 10.0 mi NNW 3.5 mph - N/A   Overcast
11:35 PM 23.0 °F 18.4 °F 14.0 °F 68% 30.13 in 10.0 mi NW 3.5 mph - N/A   Overcast
11:55 PM 23.0 °F - 13.8 °F 68% 30.13 in 10.0 mi Calm Calm - N/A   Scattered Clouds